Flag for Hungary Weather past 2 weeks in Budapest, Hungary

Now
36 °F

Clear.


Feels Like: 29 °F
Forecast: 28 / 48 °F
Wind: 8 mph from Northeast

Location: Ferenc Liszt International Airport

Current Time: Mar 6, 2015 at 10:39:04 PM

Latest Report: Mar 6, 2015 at 10:00 PM


Visibility: 10 mi

Pressure: 30.54 "Hg

Humidity: 52%

Dew point: 19 °F

Location of BudapestLocation

Historic Weather in Budapest — Graph

°F

Budapest temperature yesterday

Maximum temperature yesterday: 48 °F (at 3:00 PM)
Minimum temperature yesterday: 30 °F (at 6:30 AM)
Average temperature yesterday: 39 °F

Past Weeks' High & Low Weather Summary

 TemperatureHumidityPressure
High54 °F (Feb 25, 1:00 PM)100% (Feb 19, 11:00 PM)30.54 "Hg (Feb 19, 11:00 PM)
Low18 °F (Feb 20, 4:00 AM)25% (Mar 6, 1:00 PM)29.68 "Hg (Feb 22, 3:30 PM)
Average41 °F80%30.00 "Hg
* Reported Feb 19 9:00 PM — Mar 6 9:30 PM, Budapest, Weather by CustomWeather, © 2015

Note: Actual official high and low records may vary slightly from our data, if they occured in-between our weather recording intervals... More about our weather records

Advertising

Budapest weather history for previous 24 hours

 ConditionsComfort  
Time TempWeatherWind HumidityBarometerVisibility
9:30 PM
Fri, Mar 6
36 °FClear.12 mph52%30.54 "Hg10 mi
9:00 PM36 °FClear.12 mph52%30.51 "Hg10 mi
8:30 PM36 °FClear.9 mph52%30.51 "Hg10 mi
8:00 PM36 °FPassing clouds.7 mph52%30.48 "HgN/A
7:30 PM37 °FClear.7 mph48%30.48 "Hg10 mi
7:00 PM37 °FClear.8 mph45%30.48 "Hg10 mi
6:30 PM37 °FClear.8 mph41%30.48 "Hg10 mi
6:00 PM41 °FClear.7 mph33%30.45 "Hg10 mi
5:30 PM45 °FPassing clouds.7 mph29%30.45 "HgN/A
5:00 PM46 °FSunny.12 mph27%30.45 "Hg10 mi
4:30 PM46 °FSunny.13 mph29%30.45 "Hg10 mi
4:00 PM48 °FPassing clouds.13 mph27%30.42 "HgN/A
3:30 PM46 °FSunny.13 mph29%30.42 "Hg10 mi
3:00 PM46 °FSunny.14 mph29%30.45 "Hg10 mi
2:30 PM46 °FPassing clouds.13 mph32%30.45 "HgN/A
2:00 PM46 °FSunny.13 mph29%30.45 "Hg10 mi
1:30 PM48 °FPassing clouds.10 mph32%30.45 "HgN/A
1:00 PM48 °FPassing clouds.13 mph25%30.45 "HgN/A
12:30 PM46 °FPassing clouds.13 mph29%30.45 "HgN/A
12:00 PM46 °FPassing clouds.14 mph32%30.48 "HgN/A
11:30 AM46 °FPassing clouds.14 mph34%30.48 "HgN/A
11:00 AM45 °FPassing clouds.15 mph37%30.45 "HgN/A
10:30 AM45 °FSunny.16 mph37%30.45 "Hg10 mi
10:00 AM43 °FSunny.20 mph42%30.45 "Hg10 mi
9:30 AM43 °FSunny.17 mph42%30.45 "Hg10 mi
9:00 AM41 °FSunny.16 mph49%30.45 "Hg10 mi
8:30 AM39 °FSunny.14 mph48%30.45 "Hg10 mi
8:00 AM37 °FSunny.12 mph60%30.45 "Hg10 mi
7:30 AM36 °FSunny.12 mph60%30.42 "Hg10 mi
7:00 AM34 °FSunny.10 mph65%30.42 "Hg10 mi
6:30 AM32 °FSunny.9 mph69%30.42 "Hg10 mi
6:00 AM34 °FClear.10 mph65%30.39 "Hg10 mi
5:30 AM32 °FClear.9 mph69%30.39 "Hg10 mi
5:00 AM32 °FClear.9 mph69%30.39 "Hg10 mi
4:30 AM32 °FClear.9 mph69%30.39 "Hg10 mi
4:00 AM32 °FClear.9 mph69%30.39 "Hg10 mi
3:30 AM34 °FClear.10 mph65%30.36 "Hg10 mi
3:00 AM34 °FClear.10 mph70%30.36 "Hg10 mi
2:30 AM32 °FClear.8 mph69%30.39 "Hg10 mi
2:00 AM32 °FClear.9 mph69%30.39 "Hg10 mi
1:30 AM34 °FClear.7 mph65%30.39 "Hg10 mi
1:00 AM30 °FClear.8 mph75%30.39 "Hg10 mi
12:30 AM30 °FPassing clouds.5 mph75%30.39 "HgN/A
12:00 AM30 °FClear.6 mph75%30.39 "Hg10 mi
11:30 PM
Thu, Mar 5
36 °FClear.8 mph65%30.39 "Hg10 mi
11:00 PM36 °FClear.10 mph65%30.36 "Hg10 mi
10:30 PM37 °FClear.10 mph60%30.36 "Hg10 mi
10:00 PM34 °FClear.8 mph70%30.36 "Hg10 mi
Weather by CustomWeather, © 2015

See weather overviewHow to use our weather pages